Temperature
19 20 19 19 19 19 18 18 18 18 18 18 18 18 18 18 18 18 18 18 18 18 18 18 18 18 18 18 18 18 18 18 18 18 18 18 18 18 18 17 17 18 18
20 20 19 19 19 19 19 18 18 18 18 18 18 18 18 18 18 18 18 18 18 18 18 18 18 18 18 18 18 18 18 18 18 18 18 18 18 18 17 17 17 17 18
20 20 20 19 19 19 18 18 18 18 18 18 18 18 18 18 18 18 18 18 18 18 18 18 18 18 18 18 18 18 18 18 18 18 18 18 18 18 17 17 17 18 17
20 19 19 19 19 19 18 18 18 18 18 18 18 18 18 18 18 18 18 18 18 18 18 18 18 18 18 18 18 18 18 18 18 17 17 17 18 18 18 17 18 17 17
20 20 20 19 19 19 18 18 18 18 18 18 18 18 18 18 18 18 18 18 18 18 18 18 18 18 18 18 18 18 18 18 17 17 17 17 18 18 17 17 17 17 17
20 20 20 19 19 19 18 18 18 18 18 18 18 18 18 18 18 18 18 18 18 18 18 18 18 18 18 18 18 18 18 18 18 17 17 17 17 17 17 17 17 17 17
20 20 20 20 19 19 19 18 18 18 18 18 18 18 18 18 18 18 18 18 18 18 18 18 18 18 18 18 18 18 18 18 18 17 17 17 17 17 17 17 17 17 17
21 20 20 20 19 19 19 19 18 18 18 18 18 18 18 18 18 18 18 18 18 18 18 18 18 18 18 18 18 18 18 18 18 17 17 17 17 17 17 17 17 17 17
21 20 19 19 19 19 19 19 19 18 18 18 18 18 18 18 18 18 18 18 18 18 18 18 18 18 18 18 18 18 18 18 18 17 17 18 18 17 17 17 17 17 17
21 20 20 19 19 19 19 19 19 19 18 18 18 18 18 18 18 18 18 18 18 18 18 18 18 18 18 18 18 18 18 18 18 18 18 18 18 18 18 17 17 17 17
21 20 20 20 19 19 19 19 19 19 18 18 18 18 18 18 18 18 18 18 18 18 18 18 18 18 18 18 18 18 18 18 18 18 18 18 18 18 18 18 17 17 17
21 20 20 20 20 19 19 19 19 18 18 18 18 18 18 18 18 18 18 18 18 18 18 18 18 18 18 18 18 18 18 18 18 18 18 18 18 18 18 18 18 17 17
21 20 20 20 20 19 19 19 19 18 18 18 18 18 18 18 18 18 18 18 18 18 18 18 18 18 18 18 18 18 18 18 18 18 18 18 18 18 18 18 18 17 17
21 20 20 19 19 19 19 19 19 19 18 18 18 18 18 18 18 18 18 18 18 18 18 18 18 18 18 18 18 18 18 18 18 18 18 18 18 18 18 18 18 17 17
21 20 20 19 19 19 19 19 19 19 19 18 18 18 18 18 18 18 18 18 18 18 18 18 18 18 18 18 18 18 18 18 18 18 18 18 18 18 18 18 18 18 17
21 20 20 19 19 19 19 19 19 19 19 18 18 18 18 18 18 18 18 18 18 18 18 18 18 18 18 18 18 18 18 18 18 18 18 18 18 18 18 18 18 18 18
20 20 20 19 19 19 19 19 19 19 19 19 18 18 18 18 18 18 18 18 18 18 18 18 18 18 18 18 18 18 18 18 18 18 18 18 18 18 18 18 18 18 18
20 20 20 20 19 19 19 19 19 19 19 19 18 18 18 18 18 18 18 18 18 18 18 18 18 18 18 18 18 18 18 18 18 18 18 18 18 18 18 18 18 18 18
21 20 20 20 19 19 19 19 19 19 19 18 18 18 18 18 18 18 18 18 18 18 18 18 18 18 18 18 18 18 18 18 18 18 18 18 18 18 18 18 18 18 17
20 20 20 20 19 19 19 19 19 19 19 18 18 18 18 18 18 18 18 18 18 18 18 18 18 18 18 18 18 18 18 18 18 18 18 18 18 18 18 18 18 18 17
21 20 20 20 19 19 19 19 19 19 19 19 18 18 18 18 18 18 18 18 18 18 18 18 18 18 18 18 18 18 18 18 18 18 18 18 18 18 18 18 18 18 17
21 20 20 20 19 19 19 19 19 19 19 19 19 18 18 18 18 18 18 18 18 18 18 18 18 18 18 18 18 18 18 18 18 18 18 18 18 18 18 18 18 17 17
21 21 20 20 20 19 19 19 19 19 19 19 19 19 18 18 18 18 18 18 18 18 18 18 18 18 18 18 18 18 18 18 18 18 18 18 18 18 18 17 17 17 17
21 21 20 20 20 20 19 19 19 19 19 19 19 19 18 18 18 18 18 18 18 18 18 18 18 18 18 18 18 18 18 18 18 17 18 18 18 18 18 17 17 17 17
22 21 20 20 20 20 19 19 19 19 19 19 19 19 18 18 18 18 18 18 18 18 18 18 18 18 18 18 18 18 18 18 18 17 17 17 17 17 17 17 17 17 17
22 21 20 20 20 20 19 19 19 19 19 19 19 19 18 18 18 18 18 18 18 18 18 18 18 18 18 18 18 17 17 17 17 17 17 17 17 17 17 17 17 17 16
Wind_Speed
12 13 14 13 13 12 13 12 12 12 13 13 13 13 13 13 14 14 15 15 15 15 15 16 16 16 16 16 17 17 17 17 17 18 18 17 16 15 15 15 15 16 17
15 15 15 13 13 12 12 12 12 12 12 12 12 12 12 13 14 14 14 14 14 14 15 16 16 16 16 15 15 15 15 15 16 17 17 16 15 14 13 12 14 15 16
16 15 14 13 13 13 12 12 12 12 12 12 11 11 11 12 13 13 14 14 14 14 15 15 15 15 14 14 13 13 13 13 14 15 15 14 14 14 14 15 17 16 15
16 15 15 14 13 13 12 12 11 11 11 11 10 10 11 12 12 13 13 13 13 14 14 14 14 14 13 12 11 10 10 10 11 11 10 12 12 13 13 15 16 15 14
17 17 15 14 13 12 12 11 11 11 11 11 11 11 12 12 13 13 13 13 13 13 13 13 13 13 12 11 9 8 7 7 8 7 9 13 12 13 13 14 14 14 13
16 17 15 14 13 12 12 11 11 11 11 11 11 12 13 13 13 13 13 13 13 13 12 12 12 12 11 9 8 5 4 4 4 6 11 13 12 13 13 13 13 13 12
15 16 15 14 13 12 12 11 11 11 11 11 11 12 13 13 13 13 12 12 12 12 12 12 12 11 10 8 6 4 1 1 2 6 11 13 13 14 13 13 13 12 12
14 15 15 14 13 12 11 10 10 10 10 10 10 11 12 12 12 12 12 11 11 11 11 11 11 10 9 7 5 2 1 2 3 8 12 13 14 14 13 12 12 12 11
12 13 13 13 12 12 11 10 10 10 10 10 10 10 11 12 12 11 11 10 10 10 10 10 9 9 8 6 4 1 2 3 0 6 11 12 14 15 14 12 12 11 11
9 9 10 11 12 12 11 10 10 9 9 9 9 10 10 11 11 11 10 10 10 10 9 9 8 7 6 6 4 2 3 3 2 6 11 13 15 15 14 12 11 11 11
8 7 8 9 9 10 11 11 10 9 8 8 7 8 8 8 9 9 10 10 9 9 9 8 8 7 6 6 6 4 4 4 3 7 12 15 15 15 14 12 11 10 10
8 7 6 7 6 7 8 9 8 7 8 6 6 7 6 5 7 10 11 9 9 8 8 8 8 7 7 7 7 7 6 5 4 8 12 17 15 15 14 13 11 11 10
8 7 7 6 5 5 4 5 4 5 5 5 5 4 5 5 7 9 8 8 8 8 7 8 8 7 7 6 5 6 5 3 3 8 14 17 16 14 14 13 12 11 10
8 7 7 6 5 4 3 3 3 3 3 4 4 3 4 2 3 4 4 6 6 5 5 5 4 5 4 4 4 3 2 1 3 8 14 17 16 15 14 13 12 12 11
7 6 7 7 5 3 2 1 3 3 3 4 3 2 2 2 2 2 2 2 3 4 4 2 2 2 2 3 3 3 2 2 3 7 11 16 16 15 14 14 14 13 12
6 6 6 6 6 3 1 1 1 1 3 4 4 3 2 3 2 2 2 0 1 2 2 2 2 1 1 1 2 2 2 3 4 8 11 13 15 15 15 15 14 14 13
7 6 5 6 6 4 2 2 2 2 3 3 4 4 2 4 3 2 2 2 1 2 3 2 2 2 2 2 3 3 2 2 3 5 9 11 13 14 15 15 15 15 14
7 6 4 4 7 5 3 1 1 1 2 2 3 4 4 4 3 2 2 2 2 3 2 2 1 1 1 1 2 2 2 3 4 5 6 9 11 12 14 15 15 16 15
7 6 4 3 5 4 3 2 1 1 1 2 2 3 3 4 4 3 2 1 3 1 1 2 2 1 1 2 2 2 2 3 3 4 4 6 7 10 11 15 17 16 16
7 6 5 4 4 3 3 2 1 1 1 2 2 2 3 3 3 2 2 2 2 1 1 0 1 1 1 2 3 2 2 2 2 3 4 4 6 8 10 11 13 14 16
8 7 5 4 4 2 2 2 2 2 2 2 3 4 4 3 3 2 1 2 2 1 1 2 1 2 3 2 1 1 2 2 2 2 2 2 3 5 6 8 9 9 10
8 7 6 5 5 3 2 2 1 1 2 2 2 3 3 3 3 3 2 2 2 1 2 2 1 2 3 2 1 1 1 1 2 3 3 2 2 2 3 5 6 7 7
9 7 6 5 5 3 3 2 1 1 1 1 2 2 2 2 3 1 3 3 2 2 2 3 2 3 3 3 2 1 1 2 1 1 1 2 2 2 2 2 4 5 5
9 9 7 6 4 4 3 2 2 2 1 1 1 2 2 2 3 2 3 3 2 2 2 3 3 3 3 3 2 2 3 1 1 1 1 0 1 2 1 2 2 4 4
9 9 8 6 5 4 2 1 1 1 1 0 0 1 1 1 2 2 2 2 2 2 2 2 1 2 2 3 2 2 3 2 3 3 2 2 1 0 1 1 1 2 3
9 9 9 7 5 4 3 2 2 1 0 1 0 0 1 1 1 1 1 2 2 2 2 2 2 2 2 3 3 2 2 2 2 2 2 2 2 1 1 1 1 2 3
Wind_Direction
94 93 88 84 82 80 79 78 78 82 84 84 84 85 86 91 95 97 99 99 98 99 101 101 99 98 99 100 101 103 103 103 103 103 106 107 109 111 116 122 117 107 111
101 98 91 86 85 83 82 82 82 83 84 85 84 86 88 92 97 99 101 100 101 102 103 103 102 100 100 101 103 105 107 109 110 110 111 109 110 109 110 116 110 112 115
107 107 98 90 88 85 83 81 81 84 85 85 86 88 93 97 101 104 106 106 106 106 104 104 105 104 103 103 106 110 113 118 120 122 120 113 110 107 106 105 108 116 117
108 106 99 95 89 86 86 84 83 84 85 85 87 92 98 101 104 105 106 112 112 109 108 107 106 106 107 109 111 115 121 126 133 137 126 117 116 115 113 113 114 119 120
102 102 103 101 96 91 90 87 84 85 85 84 85 93 100 103 103 103 104 112 114 111 112 112 110 110 110 112 115 121 129 139 149 145 117 109 111 122 121 121 121 123 123
108 107 107 105 100 95 92 92 90 87 85 83 85 94 99 102 105 104 105 110 114 116 116 115 115 113 113 112 115 122 136 155 162 133 121 117 119 128 128 127 126 126 125
108 110 113 110 105 100 97 93 91 88 87 86 87 95 100 102 104 105 106 109 113 115 117 118 119 118 116 114 118 120 118 147 203 124 117 116 126 133 132 130 128 128 129
110 111 116 115 111 107 102 99 97 94 93 92 92 96 101 104 106 107 108 111 114 117 119 120 121 122 120 120 123 123 316 293 136 120 119 120 132 135 135 135 134 135 134
102 116 126 128 124 119 113 108 103 102 101 100 101 105 109 112 112 114 114 114 118 122 126 127 128 130 132 134 139 177 287 316 299 133 125 128 138 140 140 142 142 142 140
97 110 127 130 137 134 126 125 120 117 115 114 115 119 120 122 123 125 122 122 125 128 132 135 139 140 147 156 168 211 279 293 236 135 122 134 141 143 145 146 148 148 149
97 105 118 122 135 132 129 133 137 135 135 135 135 137 144 146 136 135 122 131 136 139 143 149 155 161 171 181 194 222 257 241 167 115 118 139 145 147 149 151 154 156 155
110 103 100 106 119 124 123 136 150 140 145 159 138 154 167 149 129 122 131 141 145 149 155 167 172 182 193 189 198 215 234 230 156 127 135 147 149 151 155 160 165 166 164
112 101 100 91 92 91 108 132 137 128 135 135 121 144 143 143 136 133 146 151 162 168 179 174 189 205 198 187 185 200 221 234 145 132 146 152 155 159 164 170 174 174 173
109 110 108 97 76 63 69 94 135 133 137 125 132 156 141 130 122 137 154 162 175 177 179 181 199 193 179 181 180 202 226 230 129 128 152 159 162 167 174 178 181 183 183
119 115 107 105 98 82 59 324 119 126 127 123 134 139 140 129 122 118 108 159 182 168 176 183 189 156 175 200 189 198 200 177 149 139 153 166 170 175 181 184 187 190 191
121 118 119 126 127 129 146 314 80 126 130 137 147 147 152 111 103 114 126 253 215 161 158 170 174 159 196 197 185 201 196 180 172 156 156 171 178 182 187 190 193 196 197
133 130 133 147 138 144 173 210 154 181 151 133 133 143 154 130 141 149 167 210 220 206 172 190 199 189 192 194 193 206 187 186 180 171 169 173 178 187 192 195 199 201 202
136 134 153 149 137 147 166 203 204 176 115 126 141 148 160 158 166 185 198 196 221 210 179 181 225 185 198 210 207 214 177 176 186 193 188 183 179 185 193 198 199 202 205
128 133 141 118 130 145 157 172 200 147 133 164 157 153 169 181 185 196 225 205 227 204 182 208 164 206 220 225 228 212 201 193 186 205 194 188 188 180 181 196 203 205 207
131 135 140 141 133 150 158 169 230 206 177 177 155 153 166 188 197 214 210 210 243 199 193 69 134 247 255 247 256 219 218 199 187 209 209 191 186 185 182 184 194 208 212
137 138 143 152 145 161 166 181 186 187 205 184 179 168 173 196 197 193 256 192 228 214 214 207 201 248 256 249 284 265 244 220 199 208 219 201 180 180 172 173 181 189 200
142 145 150 155 155 168 164 185 202 194 213 185 155 148 187 199 208 206 198 238 222 213 234 238 218 249 263 241 236 266 275 262 235 220 196 204 182 156 161 171 183 179 184
151 155 156 154 155 169 166 181 186 182 254 138 143 167 195 210 223 233 187 232 236 213 206 215 231 239 252 260 234 227 234 244 295 294 210 174 154 158 162 152 169 163 180
156 155 144 149 154 161 178 190 200 164 171 194 173 160 181 212 228 220 218 226 235 246 219 215 212 238 244 260 255 245 239 214 208 270 296 109 156 167 177 192 162 142 160
158 155 148 145 154 163 182 177 219 175 166 187 150 135 164 197 231 242 220 219 219 237 245 251 235 223 243 253 258 256 253 238 220 204 235 261 255 148 208 216 138 134 152
157 153 150 150 159 165 179 181 194 214 2 350 319 221 192 188 205 253 218 220 225 242 235 233 236 228 242 261 269 273 265 254 250 226 225 229 236 254 234 203 173 118 131
Height
1509 1508 1508 1508 1508 1508 1509 1509 1509 1510 1510 1511 1512 1512 1513 1514 1515 1517 1518 1520 1521 1522 1524 1525 1526 1527 1528 1530 1532 1534 1536 1537 1539 1541 1542 1544 1545 1547 1548 1550 1551 1553 1554
1511 1510 1510 1510 1510 1511 1511 1511 1512 1512 1512 1513 1513 1514 1515 1516 1517 1519 1520 1522 1523 1525 1526 1527 1528 1530 1531 1533 1535 1536 1538 1540 1541 1543 1544 1546 1547 1549 1550 1552 1553 1554 1556
1512 1512 1512 1512 1513 1513 1513 1513 1514 1514 1514 1514 1515 1515 1516 1518 1519 1521 1522 1524 1525 1527 1528 1529 1530 1532 1534 1535 1537 1538 1540 1542 1543 1545 1546 1548 1549 1551 1552 1554 1555 1556 1558
1515 1514 1514 1515 1515 1515 1515 1516 1516 1517 1516 1516 1515 1515 1516 1519 1521 1522 1524 1525 1527 1529 1530 1531 1533 1534 1536 1538 1539 1541 1542 1544 1545 1547 1548 1550 1551 1552 1553 1555 1556 1558 1559
1516 1516 1516 1517 1517 1518 1518 1518 1519 1519 1518 1517 1516 1515 1517 1520 1522 1524 1525 1526 1529 1530 1531 1533 1534 1536 1538 1539 1541 1542 1544 1546 1547 1549 1550 1551 1552 1553 1555 1556 1557 1559 1560
1518 1518 1518 1519 1520 1520 1520 1521 1521 1521 1520 1519 1517 1517 1519 1522 1524 1526 1528 1529 1531 1532 1533 1534 1536 1538 1539 1541 1542 1544 1546 1547 1549 1550 1552 1552 1553 1555 1556 1557 1558 1560 1561
1520 1520 1520 1521 1522 1522 1522 1523 1523 1523 1523 1521 1521 1521 1522 1525 1527 1528 1530 1531 1533 1534 1535 1536 1538 1539 1541 1542 1544 1545 1547 1549 1550 1552 1552 1553 1554 1555 1557 1558 1559 1561 1562
1522 1522 1522 1523 1524 1524 1524 1525 1525 1525 1525 1525 1524 1525 1526 1528 1529 1531 1532 1533 1535 1536 1537 1538 1539 1541 1542 1544 1545 1547 1548 1549 1551 1553 1554 1554 1555 1556 1558 1559 1560 1562 1563
1524 1524 1524 1525 1526 1526 1526 1527 1527 1528 1528 1528 1528 1529 1530 1531 1532 1533 1534 1535 1536 1538 1539 1540 1541 1543 1544 1545 1546 1548 1549 1550 1552 1553 1554 1555 1556 1558 1559 1560 1561 1563 1564
1526 1527 1527 1528 1528 1529 1529 1529 1530 1530 1530 1531 1531 1531 1532 1533 1534 1535 1536 1537 1538 1539 1540 1541 1543 1544 1545 1546 1548 1549 1550 1551 1552 1554 1554 1556 1557 1558 1559 1560 1562 1563 1565
1528 1529 1530 1530 1531 1531 1531 1531 1532 1532 1533 1533 1533 1534 1535 1536 1537 1538 1539 1539 1540 1541 1542 1543 1544 1545 1546 1548 1549 1550 1551 1552 1553 1554 1555 1556 1557 1558 1560 1561 1562 1564 1565
1529 1530 1531 1531 1532 1533 1534 1533 1534 1535 1535 1535 1536 1536 1537 1538 1539 1540 1541 1541 1542 1543 1544 1545 1546 1547 1548 1549 1550 1551 1551 1552 1554 1554 1555 1556 1557 1559 1560 1561 1562 1564 1565
1530 1531 1532 1532 1533 1534 1535 1535 1536 1537 1536 1537 1538 1539 1539 1540 1541 1541 1542 1542 1543 1544 1545 1546 1547 1547 1548 1550 1551 1551 1552 1553 1554 1554 1555 1556 1557 1559 1560 1561 1562 1563 1565
1530 1531 1532 1532 1533 1534 1535 1536 1537 1538 1538 1538 1539 1540 1541 1541 1542 1543 1543 1543 1544 1545 1546 1547 1548 1549 1550 1550 1551 1552 1552 1553 1553 1554 1555 1556 1557 1558 1559 1560 1562 1563 1564
1530 1531 1532 1532 1533 1534 1535 1536 1538 1538 1539 1539 1540 1540 1541 1542 1543 1544 1544 1545 1545 1546 1547 1548 1548 1549 1550 1550 1551 1552 1552 1553 1554 1554 1554 1556 1557 1558 1559 1560 1561 1562 1563
1530 1531 1532 1533 1533 1534 1535 1536 1537 1539 1539 1540 1540 1541 1542 1542 1543 1543 1544 1545 1546 1547 1547 1548 1548 1549 1550 1550 1551 1552 1552 1553 1554 1554 1554 1555 1556 1557 1558 1559 1560 1561 1562
1530 1531 1532 1533 1533 1534 1535 1536 1538 1539 1540 1540 1540 1541 1542 1542 1543 1543 1544 1545 1546 1546 1547 1548 1548 1549 1550 1550 1551 1551 1552 1553 1553 1554 1554 1555 1555 1556 1557 1558 1559 1560 1561
1530 1531 1532 1533 1533 1534 1535 1536 1538 1539 1539 1540 1540 1541 1541 1542 1542 1543 1544 1545 1546 1546 1547 1547 1548 1549 1549 1550 1550 1551 1551 1552 1553 1553 1554 1554 1554 1555 1556 1557 1558 1559 1559
1529 1530 1532 1533 1533 1534 1535 1536 1537 1538 1539 1539 1540 1541 1541 1542 1542 1543 1543 1544 1545 1546 1546 1547 1548 1548 1549 1549 1549 1550 1550 1551 1551 1552 1552 1553 1554 1554 1554 1555 1556 1557 1557
1529 1530 1531 1533 1533 1534 1535 1535 1536 1537 1538 1538 1539 1540 1540 1541 1541 1542 1543 1543 1544 1545 1546 1546 1547 1547 1548 1548 1549 1549 1549 1549 1549 1550 1551 1551 1551 1552 1552 1553 1553 1554 1555
1529 1530 1531 1532 1533 1533 1534 1535 1536 1537 1537 1538 1538 1538 1539 1540 1540 1541 1542 1542 1543 1544 1544 1545 1545 1546 1547 1547 1547 1547 1547 1548 1547 1547 1548 1549 1549 1550 1550 1551 1552 1552 1552
1529 1530 1531 1532 1533 1533 1534 1535 1536 1536 1537 1537 1537 1537 1538 1538 1539 1540 1540 1541 1542 1542 1543 1543 1544 1544 1545 1546 1546 1546 1546 1547 1546 1546 1546 1547 1548 1548 1548 1549 1550 1550 1550
1528 1529 1530 1531 1532 1533 1533 1535 1535 1536 1536 1537 1537 1537 1537 1537 1537 1538 1538 1539 1540 1540 1541 1542 1542 1543 1543 1544 1545 1545 1545 1545 1545 1545 1544 1545 1545 1544 1546 1546 1547 1547 1547
1528 1529 1530 1530 1531 1532 1533 1534 1534 1535 1535 1536 1536 1536 1536 1536 1536 1536 1537 1537 1538 1538 1539 1540 1540 1541 1541 1542 1542 1543 1543 1543 1543 1543 1543 1543 1543 1543 1544 1545 1545 1545 1545
1527 1528 1529 1530 1530 1531 1532 1533 1533 1534 1535 1535 1535 1535 1535 1535 1535 1535 1535 1535 1536 1536 1537 1538 1538 1538 1539 1539 1540 1540 1540 1541 1541 1541 1541 1541 1541 1541 1541 1542 1543 1543 1542
1526 1528 1528 1528 1529 1530 1531 1532 1533 1533 1534 1534 1534 1534 1534 1534 1533 1533 1534 1534 1534 1534 1535 1535 1536 1536 1536 1537 1537 1538 1538 1538 1538 1538 1538 1538 1538 1539 1539 1540 1540 1541 1540